Weather History for Ireland West Airport Knock, Ireland

Change the Weather History Date:

Sunday, December 8, 2013

  Actual Average Record
Temperature  
Mean Temperature 46 °F -  
Max Temperature 50 °F - - ()
Min Temperature 43 °F - - ()
Degree Days  
Heating Degree Days 18    
Moisture  
Dew Point 49 °F    
Average Humidity 97    
Maximum Humidity 100    
Minimum Humidity 92    
Precipitation  
Precipitation 0.24 in - - ()
Sea Level Pressure  
Sea Level Pressure 30.03 in    
Wind  
Wind Speed 13 mph ()    
Max Wind Speed 20 mph    
Max Gust Speed 31 mph    
Visibility 4.7 miles    
Events Rain    
T = Trace of Precipitation, MM = Missing Value Source: Averaged Metar Reports

Daily Weather History Graph

Daily Weather History Graph

Search for Another Location

Airport:

Trip Planner

Search our weather history database for the weather conditions in past years. The results will help you decide how hot, cold, wet, or windy it might be!

Date:

Astronomy

Dec. 08, 2013 Rise Set
Actual Time 8:40 AM GMT 4:14 PM GMT
Civil Twilight 7:57 AM GMT 4:57 PM GMT
Nautical Twilight 7:11 AM GMT 5:42 PM GMT
Astronomical Twilight 6:28 AM GMT 6:25 PM GMT
Moon 12:11 PM GMT (12/8) 11:34 PM GMT (12/8)
Length of Visible Light 8h 59m
Length of Day
7h 33m
Waxing Crescent, 37% of the Moon is Illuminated
Dec 8
Waxing Crescent
Dec 9
First Quarter
Dec 17
Full
Dec 25
Last Quarter
Jan 1
New

Hourly Weather History & Observations

Time (GMT) Temp. Dew Point Humidity Pressure Visibility Wind Dir Wind Speed Gust Speed Precip Events Conditions
12:00 AM 46 °F 45 °F 96% 30.09 in - SSW 13.4 mph - -  
6:00 AM 49 °F 48 °F 96% 30.05 in - SSW 11.2 mph - -  
8:00 AM 48.2 °F 48.2 °F 100% 30.01 in 6.2 mi SSW 13.8 mph - N/A   Mostly Cloudy
8:30 AM 50.0 °F 48.2 °F 94% 30.01 in 3.7 mi SSW 13.8 mph - N/A   Light Drizzle
9:00 AM 50.0 °F 48.2 °F 94% 30.01 in 3.7 mi SSW 16.1 mph - N/A Rain Light Rain
9:30 AM 50.0 °F 48.2 °F 94% 30.01 in 3.7 mi SSW 17.3 mph 28.8 mph N/A Rain Light Rain
10:00 AM 50.0 °F 50.0 °F 100% 30.01 in 3.1 mi SSW 17.3 mph - N/A Rain Light Rain
10:30 AM 50.0 °F 50.0 °F 100% 30.01 in 2.5 mi SSW 18.4 mph - N/A Rain Light Rain
11:00 AM 50.0 °F 50.0 °F 100% 30.04 in 1.9 mi SW 19.6 mph 31.1 mph N/A Rain Light Rain
11:30 AM 50.0 °F 50.0 °F 100% 30.01 in 2.5 mi SW 18.4 mph 29.9 mph N/A Rain Light Rain
12:00 PM 50 °F 50 °F 99% 30.04 in 2 mi SW 17.9 mph - - Rain Heavy Rain
12:00 PM 50.0 °F 50.0 °F 100% 30.01 in 2.5 mi SW 17.3 mph - N/A Rain Rain
12:30 PM 50.0 °F 50.0 °F 100% 30.01 in 3.7 mi SW 18.4 mph - N/A Rain Light Rain
1:00 PM 50.0 °F 50.0 °F 100% 30.01 in 6.2 mi SW 16.1 mph 27.6 mph N/A Rain Light Rain
1:30 PM 50.0 °F 50.0 °F 100% 30.01 in 1.9 mi SW 18.4 mph - N/A Rain Light Rain
2:00 PM 50.0 °F 50.0 °F 100% 30.01 in 5.0 mi SW 16.1 mph 27.6 mph N/A   Overcast
2:30 PM 51.8 °F 50.0 °F 94% 30.01 in 5.6 mi SW 15.0 mph 27.6 mph N/A   Overcast
3:00 PM 50.0 °F 50.0 °F 100% 30.04 in 5.0 mi SW 12.7 mph - N/A   Mostly Cloudy
3:30 PM 50.0 °F 48.2 °F 94% 30.04 in 4.3 mi SW 10.4 mph - N/A   Mostly Cloudy
4:00 PM 50.0 °F 50.0 °F 100% 30.04 in 5.0 mi SW 11.5 mph - N/A   Overcast
4:30 PM 50.0 °F 50.0 °F 100% 30.04 in 6.2 mi SSW 12.7 mph - N/A   Mostly Cloudy
5:00 PM 50.0 °F 48.2 °F 94% 30.04 in 6.2 mi SSW 13.8 mph - N/A   Mostly Cloudy
5:30 PM 50.0 °F 48.2 °F 94% 30.04 in 6.2 mi SSW 15.0 mph - N/A   Mostly Cloudy
6:00 PM 50 °F 48 °F 92% 30.07 in 12 mi SSW 13.4 mph - -   Partly Cloudy
6:00 PM 50.0 °F 48.2 °F 94% 30.04 in 6.2 mi SSW 13.8 mph - N/A   Mostly Cloudy
6:30 PM 50.0 °F 48.2 °F 94% 30.06 in 6.2 mi SSW 12.7 mph - N/A   Mostly Cloudy
7:00 PM 50.0 °F 48.2 °F 94% 30.06 in 6.2 mi SSW 15.0 mph - N/A   Light Drizzle